SL-14 DEB *

Satellite information

Favourite Embed

Satellite Type and Status

DEBRISIN ORBIT

Key statistics

Satellite SL-14 DEB * at a glance.

Uptime

12318

Days in orbit

Revolutions

≈ 14.2

Per day

Orbit

LEO

Low Earth Orbit

Inclination

82.6

Latest

Satellite identification and parameters

Extended collection of information and parameters for SL-14 DEB *.

Object identification

Identified? True

Debris? True

Object name: SL-14 DEB *

International designator: 1991-056DL

Object number (NORAD): 47086

Object ID (CCSDS): 47086

Country: COMMONWEALTH OF INDEPENDENT STATES (CIS)

Current information (Y/N): Y

RCS size: SMALL

Orbital parameters

Period: 101.405 minutes

Inclination: 82.5529 deg

SMA: 7203.319 km

Apoapsis: 837.595 km

Periapsis: 812.772 km

RAAN: 229.4015 deg

Eccentricy: 0.001723

Argument of periapsis: 183.1327 deg

Mean anomaly: 176.9748 deg

Mean motion: 14.20050561 rev/day

Mean motion (dot): 0.00007268 rev/day2

B* drag term: 0.0034018 1/REarth

Two-line elements (TLE)

Creation date: April 27, 2025, 2:38 a.m.

Reference frame: TEME

Reference center: EARTH

Epoch: April 26, 2025, 12:43 a.m. UTC

TLE line 0: 0 SL-14 DEB *

TLE line 1: 1 47086U 91056DL 25116.03018108 .00007268 00000-0 34018-2 0 9993

TLE line 2: 2 47086 82.5529 229.4015 0017230 183.1327 176.9748 14.20050561230875

Live tracking on map

Real-time ground track for satellite SL-14 DEB *.

In-orbit conjunctions

A list of the most updated potential collisions computed for object SL-14 DEB *.

Target Orbit TCA Probability of collision Miss distance Type
FENGYUN 1C DEB SSO 2025-05-05 17:18:52 0.0001170143 81.0 (m) DEBRIS
NOAA 16 DEB SSO 2024-09-07 05:27:31 0.0002228319 37.0 (m) DEBRIS

Associated space launch

Third generation meteorological satellite

SL-14 DEB * was lifted into orbit during the mission ‘Tsiklon-3 | Meteor-3 5’, on board a Tsiklon-3 space rocket.

The launch took place on Aug. 15, 1991, 9:15 a.m. from 32/2.

For more information about the launch, click the button.

Launch to space Tsiklon-3 | Meteor-3 5
Tsiklon-3 | Meteor-3 5

Agency: N/A

Status: Launch Successful

Launch date: Aug. 15, 1991, 9:15 a.m. UTC

Rocket: Tsiklon-3

Launch pad: 32/2

Location: Plesetsk Cosmodrome, Russian Federation

...

Latest news about this satellite

There are no fresh news available about this satellite. Check back as we update our databases every day.


Newsletter sign-up

Weekly statistics, charts and insights to help you stay on top of the space industry.